AAL7112 KLAS-KLAX

Flight info

Callsign AAL7112
Flight time 0h 39m
Altitude 26000
Route RADYR2 BLAQQ SHTNR ANJLL4
Aircraft A321/M-SDE3FGHIRWY/LB1

Departure

Time 2026-05-07 16:51
Airport Harry Reid International Airport (KLAS)

Arrival

Time 2026-05-07 17:31
Airport Los Angeles International Airport (KLAX)
Time Latitude Longitude Altitude Speed Heading
2026-05-07 16:09 36.07977 -115.14006 2115 ft 0 kts 26°
2026-05-07 16:40 36.07972 -115.14009 2116 ft 4 kts 25°
2026-05-07 16:40 36.07952 -115.14021 2116 ft 3 kts 24°
2026-05-07 16:41 36.07928 -115.14029 2118 ft 4 kts 345°
2026-05-07 16:41 36.07911 -115.14012 2118 ft 4 kts 286°
2026-05-07 16:41 36.07908 -115.13990 2118 ft 1 kts 270°
2026-05-07 16:43 36.07908 -115.13997 2118 ft 4 kts 270°
2026-05-07 16:43 36.07909 -115.14085 2117 ft 12 kts 269°
2026-05-07 16:44 36.07892 -115.14140 2116 ft 1 kts 225°
2026-05-07 16:44 36.07891 -115.14140 2116 ft 0 kts 224°
2026-05-07 16:44 36.07891 -115.14141 2116 ft 0 kts 224°
2026-05-07 16:44 36.07872 -115.14153 2118 ft 7 kts 198°
2026-05-07 16:45 36.07838 -115.14138 2117 ft 4 kts 135°
2026-05-07 16:45 36.07828 -115.14099 2118 ft 9 kts 96°
2026-05-07 16:45 36.07826 -115.13999 2122 ft 11 kts 90°
2026-05-07 16:45 36.07826 -115.13927 2123 ft 6 kts 90°
2026-05-07 16:46 36.07827 -115.13852 2127 ft 13 kts 90°
2026-05-07 16:46 36.07827 -115.13712 2123 ft 17 kts 90°
2026-05-07 16:46 36.07826 -115.13571 2124 ft 15 kts 90°
2026-05-07 16:46 36.07827 -115.13453 2126 ft 12 kts 90°
2026-05-07 16:47 36.07827 -115.13352 2126 ft 12 kts 90°
2026-05-07 16:47 36.07827 -115.13239 2123 ft 14 kts 90°
2026-05-07 16:47 36.07827 -115.13110 2120 ft 15 kts 90°
2026-05-07 16:47 36.07827 -115.12981 2120 ft 14 kts 90°
2026-05-07 16:48 36.07827 -115.12861 2120 ft 14 kts 90°
2026-05-07 16:48 36.07827 -115.12734 2116 ft 16 kts 90°
2026-05-07 16:48 36.07828 -115.12601 2115 ft 15 kts 90°
2026-05-07 16:48 36.07827 -115.12484 2117 ft 12 kts 90°
2026-05-07 16:49 36.07827 -115.12393 2118 ft 10 kts 90°
2026-05-07 16:49 36.07828 -115.12316 2118 ft 9 kts 90°
2026-05-07 16:49 36.07812 -115.12252 2118 ft 7 kts 121°
2026-05-07 16:49 36.07787 -115.12210 2119 ft 7 kts 127°
2026-05-07 16:50 36.07736 -115.12140 2124 ft 11 kts 144°
2026-05-07 16:50 36.07679 -115.12129 2127 ft 7 kts 192°
2026-05-07 16:50 36.07644 -115.12196 2125 ft 15 kts 264°
2026-05-07 16:50 36.07643 -115.12416 2121 ft 50 kts 271°
2026-05-07 16:51 36.07642 -115.13132 2128 ft 113 kts 270°
2026-05-07 16:51 36.07640 -115.14324 2122 ft 162 kts 270°
2026-05-07 16:51 36.07638 -115.15850 2363 ft 181 kts 270°
2026-05-07 16:51 36.07618 -115.17398 3006 ft 181 kts 268°
2026-05-07 16:52 36.07570 -115.18982 3525 ft 190 kts 268°
2026-05-07 16:52 36.07518 -115.20647 3962 ft 195 kts 265°
2026-05-07 16:52 36.07362 -115.22349 4234 ft 207 kts 261°
2026-05-07 16:52 36.07085 -115.24171 4374 ft 224 kts 251°
2026-05-07 16:53 36.06237 -115.25831 4552 ft 236 kts 223°
2026-05-07 16:53 36.04781 -115.26889 4633 ft 255 kts 199°
2026-05-07 16:53 36.03049 -115.27676 4932 ft 272 kts 199°
2026-05-07 16:53 36.01250 -115.28489 5536 ft 278 kts 200°
2026-05-07 16:54 35.99417 -115.29308 6197 ft 282 kts 197°
2026-05-07 16:54 35.97494 -115.29850 6789 ft 286 kts 191°
2026-05-07 16:54 35.95526 -115.30329 7412 ft 290 kts 191°
2026-05-07 16:54 35.93536 -115.30810 8054 ft 292 kts 191°
2026-05-07 16:55 35.91527 -115.31295 8655 ft 295 kts 191°
2026-05-07 16:55 35.89500 -115.31787 9203 ft 299 kts 191°
2026-05-07 16:55 35.87452 -115.32285 9762 ft 302 kts 191°
2026-05-07 16:55 35.85382 -115.32789 10267 ft 308 kts 191°
2026-05-07 16:56 35.83220 -115.33318 10433 ft 326 kts 191°
2026-05-07 16:56 35.80933 -115.33879 10556 ft 344 kts 191°
2026-05-07 16:56 35.76101 -115.35073 11386 ft 359 kts 191°
2026-05-07 16:57 35.73637 -115.35678 11941 ft 363 kts 191°
2026-05-07 16:57 35.71149 -115.36286 12491 ft 366 kts 191°
2026-05-07 16:57 35.68633 -115.36901 13045 ft 370 kts 191°
2026-05-07 16:57 35.66096 -115.37521 13593 ft 374 kts 191°
2026-05-07 16:58 35.63538 -115.38144 14135 ft 377 kts 191°
2026-05-07 16:58 35.60935 -115.38646 14662 ft 380 kts 183°
2026-05-07 16:58 35.58291 -115.38605 15173 ft 382 kts 175°
2026-05-07 16:58 35.55666 -115.38397 15714 ft 384 kts 175°
2026-05-07 16:59 35.52991 -115.38194 16204 ft 387 kts 175°
2026-05-07 16:59 35.50291 -115.38000 16677 ft 390 kts 175°
2026-05-07 16:59 35.47570 -115.37830 17138 ft 394 kts 178°
2026-05-07 16:59 35.44825 -115.38102 17592 ft 398 kts 189°
2026-05-07 17:00 35.42144 -115.39003 18040 ft 402 kts 200°
2026-05-07 17:00 35.39578 -115.40425 18479 ft 406 kts 205°
2026-05-07 17:00 35.37045 -115.41981 18905 ft 408 kts 207°
2026-05-07 17:00 35.34524 -115.43603 19331 ft 410 kts 208°
2026-05-07 17:01 35.31994 -115.45264 19709 ft 414 kts 208°
2026-05-07 17:01 35.29447 -115.46939 20071 ft 417 kts 208°
2026-05-07 17:01 35.26879 -115.48616 20439 ft 420 kts 208°
2026-05-07 17:01 35.24288 -115.50289 20781 ft 423 kts 207°
2026-05-07 17:02 35.21671 -115.51959 21125 ft 425 kts 207°
2026-05-07 17:02 35.19035 -115.53629 21469 ft 427 kts 207°
2026-05-07 17:02 35.16384 -115.55301 21797 ft 430 kts 207°
2026-05-07 17:02 35.13752 -115.57055 22113 ft 432 kts 213°
2026-05-07 17:03 35.11356 -115.59270 22432 ft 433 kts 223°
2026-05-07 17:03 35.09239 -115.61897 22723 ft 435 kts 228°
2026-05-07 17:03 35.07153 -115.64588 23034 ft 438 kts 228°
2026-05-07 17:03 35.05052 -115.67286 23344 ft 440 kts 227°
2026-05-07 17:04 35.02932 -115.69998 23655 ft 442 kts 227°
2026-05-07 17:04 35.00803 -115.72714 23946 ft 444 kts 227°
2026-05-07 17:04 34.98657 -115.75444 24243 ft 447 kts 227°
2026-05-07 17:04 34.96496 -115.78187 24544 ft 449 kts 227°
2026-05-07 17:05 34.94352 -115.80910 24849 ft 451 kts 227°
2026-05-07 17:05 34.92178 -115.83672 25168 ft 453 kts 227°
2026-05-07 17:05 34.89994 -115.86447 25460 ft 455 kts 227°
2026-05-07 17:05 34.87799 -115.89236 25743 ft 457 kts 227°
2026-05-07 17:06 34.85594 -115.92039 26033 ft 459 kts 227°
2026-05-07 17:06 34.83390 -115.94839 26113 ft 453 kts 227°
2026-05-07 17:06 34.81218 -115.97589 26119 ft 449 kts 227°
2026-05-07 17:06 34.79056 -116.00320 26123 ft 448 kts 227°
2026-05-07 17:07 34.76895 -116.03054 26119 ft 447 kts 227°
2026-05-07 17:07 34.74743 -116.05790 26112 ft 447 kts 228°
2026-05-07 17:07 34.72600 -116.08526 26118 ft 447 kts 228°
2026-05-07 17:07 34.70459 -116.11258 26119 ft 447 kts 228°
2026-05-07 17:08 34.68335 -116.13964 26119 ft 448 kts 228°
2026-05-07 17:08 34.66157 -116.16733 26119 ft 448 kts 228°
2026-05-07 17:08 34.64006 -116.19469 26120 ft 448 kts 228°
2026-05-07 17:08 34.61881 -116.22170 26124 ft 448 kts 228°
2026-05-07 17:09 34.59731 -116.24899 26131 ft 447 kts 228°
2026-05-07 17:09 34.57576 -116.27628 26136 ft 447 kts 227°
2026-05-07 17:09 34.55424 -116.30348 26141 ft 447 kts 227°
2026-05-07 17:09 34.53270 -116.33075 26144 ft 447 kts 228°
2026-05-07 17:10 34.51122 -116.35797 26149 ft 447 kts 228°
2026-05-07 17:10 34.48970 -116.38518 26148 ft 447 kts 227°
2026-05-07 17:10 34.46815 -116.41232 26150 ft 447 kts 227°
2026-05-07 17:10 34.44660 -116.43949 26151 ft 447 kts 227°
2026-05-07 17:11 34.42568 -116.46723 26155 ft 445 kts 233°
2026-05-07 17:11 34.40836 -116.49819 26159 ft 442 kts 244°
2026-05-07 17:11 34.39457 -116.53129 26167 ft 441 kts 246°
2026-05-07 17:11 34.38103 -116.56473 26197 ft 445 kts 247°
2026-05-07 17:12 34.36745 -116.59867 26228 ft 450 kts 246°
2026-05-07 17:12 34.35366 -116.63249 26250 ft 444 kts 246°
2026-05-07 17:12 34.33973 -116.66574 26259 ft 442 kts 245°
2026-05-07 17:12 34.32577 -116.69872 26133 ft 435 kts 246°
2026-05-07 17:13 34.31233 -116.73108 25684 ft 428 kts 246°
2026-05-07 17:13 34.29930 -116.76320 25134 ft 424 kts 246°
2026-05-07 17:13 34.28669 -116.79475 24547 ft 421 kts 247°
2026-05-07 17:13 34.27393 -116.82680 24085 ft 414 kts 247°
2026-05-07 17:14 34.26170 -116.85748 23646 ft 408 kts 247°
2026-05-07 17:14 34.24940 -116.88815 23195 ft 403 kts 247°
2026-05-07 17:14 34.23722 -116.91840 22747 ft 398 kts 246°
2026-05-07 17:14 34.22513 -116.94832 22295 ft 394 kts 246°
2026-05-07 17:15 34.21328 -116.97798 21833 ft 389 kts 250°
2026-05-07 17:15 34.20428 -117.00847 21379 ft 383 kts 255°
2026-05-07 17:15 34.19611 -117.03894 20909 ft 379 kts 255°
2026-05-07 17:15 34.18799 -117.06903 20457 ft 375 kts 255°
2026-05-07 17:16 34.17989 -117.09879 19981 ft 371 kts 255°
2026-05-07 17:16 34.17181 -117.12831 19530 ft 367 kts 255°
2026-05-07 17:16 34.16387 -117.15744 19066 ft 364 kts 255°
2026-05-07 17:16 34.15607 -117.18598 18661 ft 360 kts 254°
2026-05-07 17:17 34.14823 -117.21459 18220 ft 357 kts 254°
2026-05-07 17:17 34.14039 -117.24302 17791 ft 354 kts 254°
2026-05-07 17:17 34.13262 -117.27107 17303 ft 353 kts 254°
2026-05-07 17:17 34.12487 -117.29908 16870 ft 350 kts 254°
2026-05-07 17:18 34.11719 -117.32676 16485 ft 346 kts 254°
2026-05-07 17:18 34.10961 -117.35417 16094 ft 343 kts 254°
2026-05-07 17:18 34.10220 -117.38132 15702 ft 339 kts 255°
2026-05-07 17:18 34.09521 -117.40837 15306 ft 336 kts 255°
2026-05-07 17:19 34.08853 -117.43531 14904 ft 333 kts 256°
2026-05-07 17:19 34.08203 -117.46199 14505 ft 330 kts 255°
2026-05-07 17:19 34.07554 -117.48848 14124 ft 328 kts 255°
2026-05-07 17:19 34.06756 -117.51421 13682 ft 328 kts 248°
2026-05-07 17:20 34.05850 -117.53960 13170 ft 329 kts 248°
2026-05-07 17:20 34.04951 -117.56457 12683 ft 323 kts 247°
2026-05-07 17:20 34.04052 -117.58943 12197 ft 323 kts 247°
2026-05-07 17:20 34.03463 -117.60568 11937 ft 317 kts 247°
2026-05-07 17:21 34.02582 -117.62997 11341 ft 316 kts 247°
2026-05-07 17:21 34.01705 -117.65422 10939 ft 311 kts 247°
2026-05-07 17:21 34.00905 -117.67805 10393 ft 306 kts 254°
2026-05-07 17:21 34.00416 -117.71118 10160 ft 302 kts 264°
2026-05-07 17:22 34.00179 -117.73637 10054 ft 302 kts 264°
2026-05-07 17:22 34.00016 -117.75336 9937 ft 302 kts 264°
2026-05-07 17:22 33.99769 -117.77848 9501 ft 301 kts 263°
2026-05-07 17:22 33.99522 -117.80336 9130 ft 298 kts 263°
2026-05-07 17:23 33.99278 -117.82798 8761 ft 294 kts 263°
2026-05-07 17:23 33.99037 -117.85238 8378 ft 292 kts 263°
2026-05-07 17:23 33.98803 -117.87627 8012 ft 290 kts 263°
2026-05-07 17:23 33.98567 -117.90028 7661 ft 288 kts 263°
2026-05-07 17:24 33.98332 -117.92417 7311 ft 286 kts 263°
2026-05-07 17:24 33.98091 -117.94785 6929 ft 283 kts 263°
2026-05-07 17:24 33.97855 -117.97122 6566 ft 279 kts 263°
2026-05-07 17:24 33.97630 -117.99415 6320 ft 267 kts 264°
2026-05-07 17:25 33.97415 -118.01598 6024 ft 260 kts 263°
2026-05-07 17:25 33.97201 -118.03762 5670 ft 260 kts 263°
2026-05-07 17:25 33.96985 -118.05929 5319 ft 258 kts 263°
2026-05-07 17:25 33.96774 -118.08063 5017 ft 253 kts 263°
2026-05-07 17:26 33.96569 -118.10133 4692 ft 246 kts 263°
2026-05-07 17:26 33.96369 -118.12127 4342 ft 233 kts 263°
2026-05-07 17:26 33.96180 -118.14015 4048 ft 223 kts 263°
2026-05-07 17:26 33.95999 -118.15830 3762 ft 214 kts 263°
2026-05-07 17:27 33.95825 -118.17578 3467 ft 206 kts 263°
2026-05-07 17:27 33.95656 -118.19259 3200 ft 199 kts 263°
2026-05-07 17:27 33.95493 -118.20890 2927 ft 192 kts 263°
2026-05-07 17:27 33.95337 -118.22444 2690 ft 181 kts 263°
2026-05-07 17:28 33.95189 -118.23915 2456 ft 172 kts 263°
2026-05-07 17:28 33.95048 -118.25319 2249 ft 167 kts 263°
2026-05-07 17:28 33.94913 -118.26658 2017 ft 157 kts 263°
2026-05-07 17:28 33.94783 -118.27944 1805 ft 153 kts 263°
2026-05-07 17:29 33.94656 -118.29194 1611 ft 151 kts 263°
2026-05-07 17:29 33.94529 -118.30447 1417 ft 150 kts 263°
2026-05-07 17:29 33.94404 -118.31690 1213 ft 149 kts 263°
2026-05-07 17:29 33.94278 -118.32930 1015 ft 149 kts 263°
2026-05-07 17:30 33.94153 -118.34164 819 ft 148 kts 263°
2026-05-07 17:30 33.94028 -118.35394 622 ft 147 kts 263°
2026-05-07 17:30 33.93905 -118.36611 430 ft 145 kts 263°
2026-05-07 17:30 33.93783 -118.37799 238 ft 142 kts 263°
2026-05-07 17:31 33.93667 -118.38970 143 ft 139 kts 263°
2026-05-07 17:31 33.93550 -118.40008 126 ft 98 kts 263°
2026-05-07 17:31 33.93509 -118.40504 124 ft 44 kts 264°
2026-05-07 17:31 33.93476 -118.40935 122 ft 34 kts 274°
2026-05-07 17:32 33.93512 -118.41098 121 ft 11 kts 291°
2026-05-07 17:32 33.93532 -118.41162 126 ft 8 kts 288°
2026-05-07 17:32 33.93545 -118.41224 123 ft 8 kts 292°
2026-05-07 17:32 33.93605 -118.41262 124 ft 15 kts 352°
2026-05-07 17:33 33.93720 -118.41272 122 ft 13 kts 10°
2026-05-07 17:33 33.93755 -118.41199 123 ft 10 kts 83°
2026-05-07 17:33 33.93763 -118.41123 121 ft 8 kts 83°
2026-05-07 17:33 33.93770 -118.41061 124 ft 7 kts 83°
2026-05-07 17:34 33.93775 -118.41007 122 ft 6 kts 83°
2026-05-07 17:34 33.93780 -118.40958 126 ft 8 kts 83°
2026-05-07 17:34 33.93791 -118.40849 126 ft 17 kts 83°
2026-05-07 17:34 33.93805 -118.40720 122 ft 15 kts 83°
2026-05-07 17:35 33.93817 -118.40598 122 ft 14 kts 83°
2026-05-07 17:35 33.93847 -118.40529 126 ft 8 kts
2026-05-07 17:35 33.93905 -118.40534 124 ft 10 kts 353°
2026-05-07 17:35 33.93970 -118.40543 126 ft 9 kts 353°
2026-05-07 17:36 33.94029 -118.40552 122 ft 8 kts 353°
2026-05-07 17:36 33.94082 -118.40558 124 ft 6 kts
2026-05-07 17:36 33.94102 -118.40526 122 ft 4 kts 75°
2026-05-07 17:36 33.94104 -118.40513 121 ft 1 kts 78°
2026-05-07 17:37 33.94105 -118.40508 126 ft 1 kts 79°
2026-05-07 17:37 33.94105 -118.40506 126 ft 0 kts 79°